EN

Hourly Weather Novokurs'ke

Today, 14 May, Friday

Time Temperature Precipitation Wind Pressure Humidity
00:00 +13°C° 0 mm 2 mps 753 mmHg 80%
01:00 +13°C° 0 mm 2 mps 753 mmHg 82%
02:00 +12°C° 0 mm 2 mps 753 mmHg 83%
03:00 +12°C° 0 mm 2 mps 753 mmHg 85%
04:00 +12°C° 0 mm 2 mps 752 mmHg 87%
05:00 +12°C° 0 mm 1 mps 752 mmHg 88%
06:00 +14°C° 0 mm 2 mps 752 mmHg 81%
07:00 +16°C° 0 mm 2 mps 752 mmHg 74%
08:00 +18°C° 0 mm 3 mps 752 mmHg 66%
09:00 +19°C° 0 mm 4 mps 752 mmHg 59%
10:00 +21°C° 0 mm 4 mps 753 mmHg 51%
11:00 +22°C° 0 mm 5 mps 753 mmHg 44%
12:00 +23°C° 0 mm 5 mps 753 mmHg 44%
13:00 +23°C° 0 mm 5 mps 753 mmHg 45%
14:00 +23°C° 0 mm 5 mps 752 mmHg 46%
15:00 +23°C° 0 mm 5 mps 752 mmHg 49%
16:00 +23°C° 0 mm 5 mps 752 mmHg 51%
17:00 +23°C° 0 mm 5 mps 753 mmHg 54%
18:00 +20°C° 0 mm 4 mps 753 mmHg 61%
19:00 +18°C° 0 mm 4 mps 753 mmHg 67%
20:00 +15°C° 0 mm 4 mps 753 mmHg 74%
21:00 +14°C° 0 mm 4 mps 754 mmHg 76%
22:00 +14°C° 0 mm 3 mps 754 mmHg 77%
23:00 +13°C° 0 mm 3 mps 754 mmHg 79%

Tomorrow, 15 May, Saturday

Time Temperature Precipitation Wind Pressure Humidity
00:00 +13°C° 0 mm 3 mps 754 mmHg 81%
01:00 +12°C° 0 mm 3 mps 754 mmHg 83%
02:00 +12°C° 0 mm 3 mps 755 mmHg 84%
03:00 +12°C° 0 mm 3 mps 755 mmHg 86%
04:00 +12°C° 0 mm 3 mps 755 mmHg 88%
05:00 +12°C° 0 mm 3 mps 755 mmHg 90%
06:00 +16°C° 0 mm 3 mps 755 mmHg 81%
07:00 +18°C° 0 mm 4 mps 755 mmHg 71%
08:00 +20°C° 0 mm 5 mps 755 mmHg 62%
09:00 +21°C° 0 mm 5 mps 755 mmHg 57%
10:00 +22°C° 0 mm 5 mps 755 mmHg 52%
11:00 +25°C° 0 mm 5 mps 755 mmHg 46%
12:00 +25°C° 0 mm 5 mps 755 mmHg 44%
13:00 +26°C° 0 mm 5 mps 755 mmHg 42%
14:00 +26°C° 0 mm 5 mps 755 mmHg 39%
15:00 +25°C° 0 mm 4 mps 755 mmHg 43%
16:00 +25°C° 0 mm 4 mps 755 mmHg 47%
17:00 +24°C° 0 mm 3 mps 755 mmHg 51%
18:00 +21°C° 0 mm 3 mps 755 mmHg 56%
19:00 +20°C° 0 mm 3 mps 755 mmHg 62%
20:00 +18°C° 0 mm 2 mps 755 mmHg 67%
21:00 +17°C° 0 mm 2 mps 755 mmHg 69%
22:00 +16°C° 0 mm 1 mps 755 mmHg 71%
23:00 +15°C° 0 mm 1 mps 755 mmHg 73%

Day after tomorrow, 16 May, Sunday

Time Temperature Precipitation Wind Pressure Humidity
00:00 +15°C° 0 mm 1 mps 755 mmHg 74%
01:00 +15°C° 0 mm 1 mps 755 mmHg 74%
02:00 +15°C° 0 mm 1 mps 755 mmHg 74%
03:00 +15°C° 0 mm 2 mps 755 mmHg 74%
04:00 +15°C° 0 mm 2 mps 755 mmHg 74%
05:00 +15°C° 0 mm 2 mps 755 mmHg 74%
06:00 +17°C° 0 mm 2 mps 755 mmHg 68%
07:00 +19°C° 0 mm 3 mps 755 mmHg 62%
08:00 +21°C° 0 mm 3 mps 755 mmHg 56%
09:00 +22°C° 0 mm 3 mps 755 mmHg 52%
10:00 +25°C° 0 mm 4 mps 754 mmHg 48%
11:00 +26°C° 0 mm 4 mps 754 mmHg 44%
12:00 +27°C° 0 mm 4 mps 754 mmHg 41%
13:00 +28°C° 0 mm 4 mps 753 mmHg 39%
14:00 +28°C° 0 mm 4 mps 753 mmHg 36%
15:00 +28°C° 0 mm 3 mps 753 mmHg 38%
16:00 +28°C° 0 mm 3 mps 752 mmHg 41%
17:00 +28°C° 0 mm 2 mps 752 mmHg 43%
18:00 +26°C° 0 mm 3 mps 751 mmHg 49%
19:00 +24°C° 0 mm 3 mps 751 mmHg 55%
20:00 +21°C° 0 mm 3 mps 751 mmHg 60%
21:00 +21°C° 0.5 mm 3 mps 751 mmHg 68%
22:00 +20°C° 0.5 mm 3 mps 750 mmHg 75%
23:00 +19°C° 0.5 mm 3 mps 750 mmHg 83%

17 May, Monday

Time Temperature Precipitation Wind Pressure Humidity
00:00 +18°C° 1.1 mm 2 mps 750 mmHg 86%
01:00 +18°C° 1.1 mm 2 mps 750 mmHg 90%
02:00 +19°C° 1.1 mm 1 mps 750 mmHg 94%
03:00 +18°C° 1 mm 2 mps 750 mmHg 95%
04:00 +18°C° 1 mm 2 mps 749 mmHg 96%
05:00 +18°C° 1 mm 2 mps 749 mmHg 97%
06:00 +19°C° 0.4 mm 3 mps 749 mmHg 93%
07:00 +19°C° 0.4 mm 4 mps 749 mmHg 89%
08:00 +20°C° 0.4 mm 5 mps 749 mmHg 86%
09:00 +21°C° 0.4 mm 4 mps 749 mmHg 81%
10:00 +22°C° 0.4 mm 3 mps 749 mmHg 75%
11:00 +24°C° 0.4 mm 2 mps 749 mmHg 70%
12:00 +25°C° 0.7 mm 3 mps 749 mmHg 68%
13:00 +25°C° 0.7 mm 4 mps 750 mmHg 66%
14:00 +25°C° 0.7 mm 4 mps 750 mmHg 63%
15:00 +25°C° 0 mm 4 mps 750 mmHg 63%
16:00 +25°C° 0 mm 4 mps 750 mmHg 62%
17:00 +25°C° 0 mm 3 mps 750 mmHg 62%
18:00 +22°C° 0 mm 3 mps 750 mmHg 67%
19:00 +21°C° 0 mm 3 mps 751 mmHg 73%
20:00 +19°C° 0 mm 2 mps 751 mmHg 78%
21:00 +18°C° 0.1 mm 2 mps 751 mmHg 81%
22:00 +18°C° 0.1 mm 2 mps 752 mmHg 83%
23:00 +17°C° 0.1 mm 2 mps 752 mmHg 85%

18 May, Tuesday

Time Temperature Precipitation Wind Pressure Humidity
00:00 +17°C° 0.1 mm 2 mps 752 mmHg 87%
01:00 +16°C° 0.1 mm 2 mps 752 mmHg 89%
02:00 +16°C° 0.1 mm 3 mps 752 mmHg 92%
03:00 +16°C° 0 mm 3 mps 752 mmHg 92%
04:00 +16°C° 0 mm 3 mps 752 mmHg 92%
05:00 +14°C° 0 mm 3 mps 752 mmHg 93%
06:00 +17°C° 0 mm 2 mps 753 mmHg 85%
07:00 +19°C° 0 mm 2 mps 753 mmHg 77%
08:00 +21°C° 0 mm 2 mps 753 mmHg 69%
09:00 +23°C° 0 mm 2 mps 753 mmHg 64%
10:00 +24°C° 0 mm 3 mps 753 mmHg 59%
11:00 +26°C° 0 mm 3 mps 753 mmHg 54%
12:00 +26°C° 0 mm 3 mps 753 mmHg 50%
13:00 +27°C° 0 mm 3 mps 753 mmHg 45%
14:00 +28°C° 0 mm 4 mps 753 mmHg 41%
15:00 +27°C° 0 mm 4 mps 753 mmHg 43%
16:00 +27°C° 0 mm 4 mps 752 mmHg 45%
17:00 +27°C° 0 mm 4 mps 752 mmHg 46%
18:00 +25°C° 0 mm 4 mps 752 mmHg 54%
19:00 +22°C° 0 mm 4 mps 753 mmHg 62%
20:00 +20°C° 0 mm 4 mps 753 mmHg 70%
21:00 +19°C° 0 mm 4 mps 753 mmHg 75%
22:00 +18°C° 0 mm 4 mps 753 mmHg 79%
23:00 +17°C° 0 mm 4 mps 753 mmHg 84%

19 May, Wednesday

Time Temperature Precipitation Wind Pressure Humidity
00:00 +17°C° 0 mm 4 mps 753 mmHg 83%
01:00 +17°C° 0 mm 4 mps 753 mmHg 83%
02:00 +17°C° 0 mm 4 mps 753 mmHg 83%
03:00 +17°C° 0 mm 4 mps 753 mmHg 80%
04:00 +16°C° 0 mm 5 mps 752 mmHg 78%
05:00 +17°C° 0 mm 5 mps 752 mmHg 76%
06:00 +19°C° 0 mm 6 mps 752 mmHg 73%
07:00 +20°C° 0 mm 7 mps 753 mmHg 70%
08:00 +21°C° 0 mm 8 mps 753 mmHg 67%
09:00 +21°C° 0.4 mm 7 mps 753 mmHg 69%
10:00 +21°C° 0.4 mm 6 mps 753 mmHg 71%
11:00 +21°C° 0.4 mm 5 mps 753 mmHg 74%
12:00 +20°C° 0.1 mm 5 mps 753 mmHg 76%
13:00 +20°C° 0.1 mm 4 mps 753 mmHg 77%
14:00 +19°C° 0.1 mm 4 mps 753 mmHg 79%
15:00 +19°C° 0.2 mm 4 mps 753 mmHg 81%
16:00 +18°C° 0.2 mm 4 mps 753 mmHg 84%
17:00 +16°C° 0.2 mm 5 mps 753 mmHg 86%
18:00 +15°C° 0.6 mm 4 mps 753 mmHg 88%
19:00 +14°C° 0.6 mm 4 mps 753 mmHg 90%
20:00 +14°C° 0.6 mm 3 mps 753 mmHg 92%
21:00 +13°C° 0.7 mm 3 mps 753 mmHg 93%
22:00 +13°C° 0.7 mm 4 mps 753 mmHg 93%
23:00 +13°C° 0.7 mm 4 mps 754 mmHg 93%
Show more

We Need Your Consent

Meteoprog and our Service Providers may store and access personal data such as cookies, device identifiers or other similar technologies on your device and process such data to personalise content and ads, as well as provide social media features and to analyse the traffic.

  • Store and/or access information on your device

    Cookies, device identifiers or other information can be stored or accessed on your device for the purposes indicated above.

  • Personalised ads and content, ad and content measurement, audience insights, and products development

    Ads and content can be personalised based on a profile. More data can be added to better personalise ads and content. Ad and content performance can be measured. Insights about the audience who saw the ads and content can be derived. Such data can be used to develop or improve user’s experience, systems and software.

By clicking ‘I Agree’ you will allow the use of indicated cookies, device identifiers, web beacons or other similar technologies. Your settings can be changed in the browser on your device.

For certain purposes, legitimate interests may be relied on, rather than consent. You can read more about this in our Privacy and Cookie Policy.